Regional Weather Roundup
Issued by NWS Grand Forks, ND

Home | Current Version | Previous Version | Graphics & Text | Print | Product List | Glossary On
Versions: 1 2 3 4 5 6 7 8 9 10 11 12 13 14 15 16 17 18 19 20 21 22 23 24 25 26 27 28 29 30 31 32 33 34 35 36 37 38 39 40 41 42 43 44 45 46 47 48 49 50
161
ASUS43 KFGF 271910
RWRFGF
PRAIRIE TO PINES  WEATHER ROUNDUP
NATIONAL WEATHER SERVICE EASTERN NORTH DAKOTA/GRAND FORKS ND
200 PM CDT TUE JUN 27 2017

 **SATELLITE DATA USED TO AUGMENT SKY COVER AT AUTOMATED STATIONS**
 *****  WEATHER ACROSS EASTERN NORTH DAKOTA  *****

CITY           SKY/WX    TMP DP  RH WIND       PRES   REMARKS
GRAND FORKS    FAIR      80  48  32 S23G30    29.73F
GRAND FRKS AFB FAIR      78  46  31 S20G28    29.73F
DEVILS LAKE    FAIR      72  49  44 S22G30    29.70F
FARGO          FAIR      76  43  30 S25G33    29.79F
WAHPETON ARPT  FAIR      70  37  30 S17G24    29.83F
$$

 ***** WEATHER ACROSS CENTRAL AND WESTERN NORTH DAKOTA  *****

CITY           SKY/WX    TMP DP  RH WIND       PRES   REMARKS
BISMARCK       FAIR      84  56  38 S21G32    29.62F
MINOT          FAIR      83  52  34 S17       29.56F
JAMESTOWN      FAIR      74  46  36 S26G36    29.71F
MINOT AFB      FAIR      82  53  36 S15       29.55F
GARRISON         N/A     80  54  40 S18       29.58F
WILLISTON      FAIR      88  46  23 W8        29.55S
DICKINSON      FAIR      86  50  28 S14       29.57F
HETTINGER      FAIR      88  55  32 SW15      29.62F
$$

 *****  OTHER AIRPORT OBSERVATIONS IN OUR AREA  *****

CITY           SKY/WX    TMP DP  RH WIND       PRES   REMARKS
WALHALLA       NOT AVBL
GRAFTON AIRPOR FAIR      79  48  34 S21G28    29.73F
VALLEY CITY AR FAIR      70  48  46 S17G28    29.74F
CANDO          NOT AVBL
CAVALIER APRT  FAIR      79  46  31 S17G28    29.70S
GWINNER        CLOUDY    75  48  38 S21G26    29.79F
ROLLA            N/A     73  54  49 S24G36    29.64F
 ***** THE ABOVE OBSERVATIONS ARE NON NWS ARE NOT QUALITY
       CONTROLLED AND MAY MIS-REPORT RAIN FOR SNOW...
$$

  *****  WEATHER ACROSS NORTHERN MINNESOTA  *****

CITY           SKY/WX    TMP DP  RH WIND       PRES   REMARKS
FLAG ISLAND    FAIR      72  52  49 S8        29.80F
WARROAD        FAIR      72  48  43 S8        29.80F
ROSEAU         FAIR      73  48  40 S13G21    29.79F
HALLOCK        FAIR      75  46  35 S17G23    29.73F
THF RVR FALLS  FAIR      75  43  31 S17G26    29.79F
BAUDETTE       FAIR      71  46  40 S12       29.82F
WASKISH        CLOUDY    70  46  43 S6        29.84F
CROOKSTON      FAIR      75  45  33 S22       29.77F
STEPHEN NDAWN    N/A     79  45  29 S20         N/A
GREENBUSH NDAW   N/A     73  45  35 S14         N/A
$$
  *****  WEATHER ACROSS CENTRAL AND WEST MINNESOTA  *****

CITY           SKY/WX    TMP DP  RH WIND       PRES   REMARKS
FOSSTON        FAIR      70  46  43 S15G25    29.83F
BEMIDJI        FAIR      72  45  37 S17       29.85F
PARK RAPIDS    FAIR      74  40  29 S15G25    29.87F
ELBOW LAKE     FAIR      71  44  37 S23       29.86F
WADENA         FAIR      72  45  37 S15G25    29.88F
DETROIT LAKES  FAIR      72  41  33 S21G26    29.85F
MOORHEAD       FAIR      73  41  31 S17G24    29.82S
FERGUS FALLS   FAIR      72  43  35 S24       29.83F
MORRIS MN      FAIR      75  43  31 S20G25    29.86F
STAPLES        FAIR      72  39  30 S15       29.90F
$$
  *****  WEATHER ELSEWHERE ACROSS MINNESOTA  *****

CITY           SKY/WX    TMP DP  RH WIND       PRES   REMARKS
DULUTH         FAIR      72  45  37 SW12      29.94F
INTRNTL FALLS  FAIR      73  46  38 SW8       29.84F
ELY            FAIR      70  43  37 SW10G20   29.90F
CLOQUET        FAIR      72  39  30 S12G18    29.94F
WHEATON        FAIR      73  43  33 SE14G23   29.84F
BRAINERD       FAIR      73  42  32 S21       29.92F
HIBBING        FAIR      71  43  36 SW9G25    29.90F
ALEXANDRIA     FAIR      70  43  37 S17       29.91F
SAINT CLOUD    FAIR      73  40  30 S14G24    29.95F
MINNEAPOLIS    PTSUNNY   74  41  30 SW10G22   29.99F
$$

  *****  WEATHER ACROSS SOUTH DAKOTA  *****

CITY           SKY/WX    TMP DP  RH WIND       PRES   REMARKS
SIOUX FALLS    FAIR      75  54  47 S16G28    29.90F
BROOKINGS      FAIR      75  48  38 S23G29    29.88F
WATERTOWN      FAIR      73  46  38 S18G28    29.85F
HURON          FAIR      79  48  33 SE23G32   29.77F
SISSETON         N/A     75  46  35 S20G28    29.80F
ABERDEEN       FAIR      78  49  35 S26G40    29.74F
MITCHELL       FAIR      81  49  32 S25G32    29.81F
PIERRE         FAIR      86  58  38 S25G33    29.64F
MOBRIDGE       FAIR      83  54  36 S28G35    29.63F
RAPID CITY     FAIR      84  57  39 VRB3      29.66S
$$

  *****  SOME WEATHER IN NEARBY STATES *****

CITY           SKY/WX    TMP DP  RH WIND       PRES   REMARKS
GLASGOW MT     FAIR      80  49  33 NW24      29.61S
GREAT FALLS MT CLOUDY    76  47  35 S12       29.78S
CHEYENNE WY    FAIR      84  39  20 S13       29.90F
SCOTTSBLUFF NE FAIR      90  51  26 SW7       29.76F
OMAHA NE       PTSUNNY   78  58  49 S15G24    29.97F
DES MOINES IA  PTSUNNY   77  48  35 S12G21    30.04F
DAVENPORT IA   NOT AVBL
CHICAGO IL     FAIR      76  43  30 VRB6      30.09F
EAU CLAIRE WI  FAIR      74  43  32 SW13      30.01F
LA CROSSE WI   FAIR      78  45  30 VRB7      30.03F
$$

  *****  SOME NATIONAL WEATHER *****

CITY           SKY/WX    TMP DP  RH WIND       PRES   REMARKS
LA GUARDIA NY  FAIR      78  54  43 SW10      29.92F
RALEIGH NC     FAIR      82  54  37 VRB6      30.05F
ATLANTA GA     FAIR      83  55  38 NW13      30.08F
NEW ORLEANS LA CLOUDY    84  63  49 NE7       30.02S
OKLAHOMA CITY  PTSUNNY   90  65  43 S14G20    29.99F HX  92
ALBUQUERQUE NM FAIR      85  44  23 S7        30.11F
SALT LAKE CITY FAIR      85  41  21 NW14      29.94S
LOS ANGELES CA FAIR      76  60  57 W9        29.90S
BOISE ID       FAIR      82  48  30 W10       29.92F
SEATTLE WA     CLOUDY    59  49  69 SW8       30.07S
$$

*** WEATHER ACROSS MANITOBA...SASKATCHEWAN AND ONTARIO ***
                ***ONTARIO***

CITY           SKY/WX    TMP DP  RH WIND       PRES   REMARKS
GERALDTON      PTSUNNY   70  46  43 W14G21    29.81S
THUNDER BAY    MOSUNNY   73  46  38 SW13G21   29.85F
SIOUX LOOKOUT  MOSUNNY   72  45  37 W10G23    29.80F
TORONTO        LGT RAIN  59  54  82 NW15G24   29.94S
BIG TROUT LK   MOSUNNY   66  48  52 NW10G17   29.67R
PICKLE LAKE    PTSUNNY   73  41  31 W14       29.72F
DRYDEN         SUNNY     72  41  33 W21G26    29.82F
KENORA         PTSUNNY   72  43  35 S17G25    29.81F
$$
                *** MANITOBA***

CITY           SKY/WX    TMP DP  RH WIND       PRES   REMARKS
BRANDON        PTSUNNY   79  55  44 S14       29.59F
DAUPHIN        SUNNY     79  54  41 S13       29.54F
ISLAND LAKE    MOSUNNY   70  50  49 N8        29.71R
PILOT MOUND      N/A     73  50  43 S25G32      N/A
THE PAS        LGT RAIN  72  48  43 E14G23    29.57F
THOMPSON       PTSUNNY   61  43  51 E9G22     29.79R
WINNIPEG       PTSUNNY   75  48  38 S21       29.70F
LYNN LAKE      SUNNY     64  43  45 E18G26    29.75R
CHURCHILL      MOSUNNY   48  41  76 NE10      29.99R
GILLAM         CLOUDY    55  43  62 NE16G26   29.85R
$$
                ***SASKATCHEWAN***

CITY           SKY/WX    TMP DP  RH WIND       PRES   REMARKS
ESTEVAN        CLOUDY    81  54  39 S9        29.54S
KINDERSLEY     MOSUNNY   70  43  37 NW25G36   29.63R
LLOYDMINSTER   PTSUNNY   68  46  45 NW21G28   29.61R
PRINCE ALBERT  CLOUDY    73  55  53 E10       29.45R
REGINA         PTSUNNY   82  55  39 W18G24    29.50R
YORKTON        SUNNY     77  55  47 SE13G24   29.49F
N. BATTLEFORD  NOT AVBL
LA RONGE       CLOUDY    68  48  49 E18       29.50S
SASKATOON      PTSUNNY   73  55  53 NW23      29.47R
SWIFT CURRENT  CLOUDY    63  54  72 NW18G25   29.63R
$$
NOTE: THESE ARE AUTOMATED STATIONS WITH LIMITED QUALITY CONTROL
      "FAIR" INDICATES FEW OR NO CLOUDS BELOW 12,000 FEET WITH NO
      SIGNIFICANT WEATHER AND/OR OBSTRUCTIONS TO VISIBILITY.
      SKY/WX - SKY CONDITION AND SIGNIFICANT WEATHER.
      TMP - AIR TEMPERATURE.    DP   - DEWPOINT TEMPERATURE.
      RH  - RELATIVE HUMIDITY.  PRES - PRESSURE.
      HX  - HEAT INDEX.         WCI  - WIND CHILL INDEX.
$




USA.gov is the U.S. government's official web portal to all federal, state and local government web resources and services.